Hourly Data Report for October 13, 2020

OTTAWA INTL A
ONTARIO
Current Station Operator: NAVCAN

45°19'00.000" N
75°40'00.000" W
114.90 m
6106001
71628
YOW

Download Data

Hourly Data (October 2020)
Hourly Data Report for October 13, 2020
TIME Temp Definition
°C
Dew Point Definition
°C
Rel Hum Definition
%
Wind Dir Definition
10's deg

Wind Spd Definition
km/h
Visibility Definition
km
Stn Press Definition
kPa
Hmdx Definition


Wind Chill Definition


Weather Definition


00:00 10.5 5.4 71 9 15 24.1 100.17     LegendNANA
01:00 9.0 6.8 86 9 16 12.9 100.13     Rain
02:00 8.2 6.5 88 11 12 3.2 100.10     Moderate Rain,Fog
03:00 7.5 6.9 95 7 11 4.8 100.03     Rain,Fog
04:00 7.4 6.9 96 8 17 6.4 99.96     Rain,Fog
05:00 7.5 7.1 97 9 22 9.7 99.93     Rain,Fog
06:00 7.5 7.1 97 9 17 9.7 99.91     Rain,Fog
07:00 7.8 7.5 98 9 14 9.7 99.89     Rain,Fog
08:00 8.3 8.0 98 10 13 8.1 99.90     Rain,Fog
09:00 8.8 8.5 98 10 12 12.9 99.93     Rain
10:00 9.5 9.2 98 9 9 9.7 99.92     Rain,Fog
11:00 9.8 9.5 98 8 10 6.4 99.90     Rain,Fog
12:00 10.6 10.3 98 10 8 2.4 99.88     Rain,Fog
13:00 11.5 11.3 98 10 7 6.4 99.80     Rain,Fog
14:00 12.2 11.9 98 6 8 4.8 99.77     Rain,Fog
15:00 11.2 10.9 98 3 13 24.1 99.80     Rain
16:00 11.7 11.1 96 1 12 24.1 99.82     Cloudy
17:00 10.6 10.3 98 5 8 6.4 99.85     Fog
18:00 10.1 9.8 99 6 6 0.2 99.88     Fog
19:00 9.6 9.5 99 3 5 0.2 99.89     Fog
20:00 9.0 8.9 99 34 5 0.2 99.88     Drizzle,Fog
21:00 8.4 8.3 99 36 3 0.2 99.90     Drizzle,Fog
22:00 7.8 7.8 99 9 7 0.2 99.86     Drizzle,Fog
23:00 6.6 6.5 100 22 5 0.2 99.88     Fog

Notes on Data Quality.

Legend

  • E = Estimated
  • M = Missing
  • NA = Not Available*
  • [empty] = Indicates an unobserved value
Date modified: